User: anonymous   Login
Location: Unspecified
(0.0000°N, 0.0000°E)
Time: 11:36:23
(UTC+02:00)
Language:

Cosmos 1536 - Orbit

View from above orbital plane
View from above orbital plane
View from above satellite
View from above satellite

Ground track
Ground track

The orbit data is extracted from the following two-line orbital elements,

1 14699U 84013A   18172.94328553 -.00000097 +00000-0 -88230-5 0  9997
2 14699 082.5254 331.4804 0011688 228.7553 131.2668 15.05303231847555
Epoch (UTC): 21 June 2018 22:38:19
Eccentricity: 0.0011688
inclination: 82.5254°
perigee height: 542 km
apogee height: 558 km
right ascension of ascending node: 331.4804°
argument of perigee: 228.7553°
revolutions per day: 15.05303231
mean anomaly at epoch: 131.2668°
orbit number at epoch: 84755

The dashed part of the orbit path shows where the satellite is in the earth's shadow,  

DLR